Location: Asheville, NC
(35.6000°N, 82.5500°W)
Time: 15:29:37
(UTC-04:00)

ISS - Pass Details

Date: 08 May 2026
Orbit: 414 x 424 km, 51.6° (Epoch: 15 May)

Event Time Altitude Azimuth Distance (km) Brightness Sun altitude
Rises 22:37:47 0° 261° (W) 2,337 0.5 -23.7°
Reaches altitude 10° 22:40:14 10° 279° (W) 1,478 -0.3 -24.0°
Maximum altitude 22:42:47 20° 329° (NNW) 1,014 -1.0 -24.4°
Drops below altitude 10° 22:45:20 10° 19° (NNE) 1,484 -0.7 -24.7°
Enters shadow 22:47:37 - 36° (NE) 2,279 0.1 -25.0°
